Weather Roundup
Issued by NWS

Home | Current Version | Previous Version | Text Only | Print | Product List | Glossary On
Versions: 1 2 3 4 5 6 7 8 9 10 11 12 13 14 15 16 17 18 19 20 21 22 23 24 25 26 27 28 29 30 31 32 33 34 35 36 37 38 39 40 41 42 43 44 45 46 47 48 49 50
000
NZUS93 KARX 312110
HRRWXR

CURRENT HOURLY OBSERVATIONS ACROSS
MUCH OF THE UPPER MISSISSIPPI VALLEY
NATIONAL WEATHER SERVICE LA CROSSE WI
400 PM CDT FRI OCT 31 2014


...SOUTHEAST MINNESOTA...


CITY           SKY/WX    TMP DP  RH WIND       PRES   REMARKS
ROCHESTER      SUNNY     39  19  44 N15       30.46R WCI  31
ROCHESTER/MAYO FAIR      39  14  36 NW8       30.46S WCI  33
WINONA         MOSUNNY   41  21  45 N7        30.46F
AUSTIN         SUNNY     37  19  48 N9G21     30.45S WCI  31
ALBERT LEA     SUNNY     39  16  38 N8        30.47R WCI  34
DODGE CENTER   SUNNY     37  18  44 NE10      30.46S WCI  30
PRESTON        SUNNY     37  18  46 N15       30.44S WCI  28
OWATONNA       SUNNY     39  16  38 N9        30.48R WCI  33
FARIBAULT      SUNNY     39  16  38 NE7       30.49S WCI  34
$$

...ELSEWHERE IN MINNESOTA...


CITY           SKY/WX    TMP DP  RH WIND       PRES   REMARKS
MINNEAPOLIS    SUNNY     39  15  37 N9        30.50F WCI  33
INTNL FALLS    SUNNY     37  18  46 W7        30.48F WCI  32
DULUTH         SUNNY     38  13  35 N6        30.45F WCI  33
RED WING       SUNNY     39  14  35 N7        30.48S WCI  34
REDWOOD FALLS  SUNNY     41  16  36 VRB6      30.50F
MANKATO        SUNNY     37  16  41 N6        30.49S WCI  33
WORTHINGTON    SUNNY     37  16  41 E3        30.47F
FAIRMONT       SUNNY     39  14  35 N9        30.48S WCI  33
$$

...SOUTHWEST WISCONSIN...


CITY           SKY/WX    TMP DP  RH WIND       PRES   REMARKS
LA CROSSE      PTSUNNY   44  19  36 N13       30.44R
PRAIRIE DU CHI MOSUNNY   41  18  38 NW13G21   30.41R
BOSCOBEL       MOSUNNY   43  17  35 N13G22    30.41R
LONE ROCK      SUNNY     44  17  33 N21G26    30.39R
PLATTEVILLE    MOSUNNY   40  18  41 N23G29    30.37R WCI  30
FORT MC COY    MOSUNNY   40  15  36 N17       30.43S WCI  32
CAMP DOUGLAS   SUNNY     38  17  42 N9G22     30.41R WCI  32
VIROQUA        FAIR      38  18  44 N15G22    30.39S WCI  29
WIS DELLS      PTSUNNY   37  17  44 N13G22    30.37R WCI  29
$$

...ELSEWHERE IN WISCONSIN...


CITY           SKY/WX    TMP DP  RH WIND       PRES   REMARKS
MILWAUKEE      CLOUDY    37  21  52 N26G39    30.28R WCI  25
MADISON        PTSUNNY   40  18  41 N21G26    30.36R WCI  30
GREEN BAY      PTSUNNY   38  22  52 N21G26    30.36R WCI  28
EAU CLAIRE     MOSUNNY   39  17  41 NE7       30.46F WCI  34
BLACK RVR FLS  MOCLDY    40  16  37 N14G20    30.43S WCI  33
MEDFORD        PTSUNNY   34  19  55 N13       30.41S WCI  25
WAUSAU         PTSUNNY   36  19  50 N14G22    30.39S WCI  27
WIS RAPIDS     MOSUNNY   38  16  40 N15G31    30.42R WCI  29
MARSHFIELD     CLOUDY    37  18  46 NE13G23   30.41R WCI  29
RICE LAKE      SUNNY     38  19  46 NW7       30.49S WCI  33
$$

...NORTHEAST IOWA...


CITY           SKY/WX    TMP DP  RH WIND       PRES   REMARKS
DECORAH        SUNNY     37  18  44 N12G17    30.41S WCI  30
MASON CITY     SUNNY     40  17  39 N13G18    30.47S WCI  32
CHARLES CITY   SUNNY     39  18  41 N14       30.44S WCI  31
OELWEIN        SUNNY     39  18  41 N17G25    30.42S WCI  30
$$

...ELSEWHERE IN IOWA...


CITY           SKY/WX    TMP DP  RH WIND       PRES   REMARKS
DES MOINES     SUNNY     43  18  36 N13       30.45F
IOWA CITY      SUNNY     43  21  41 NW15G23   30.40F
FORT DODGE     SUNNY     39  18  41 N8        30.48S WCI  34
$$

...NORTHERN ILLINOIS...


CITY           SKY/WX    TMP DP  RH WIND       PRES   REMARKS
CHICAGO-OHARE  CLOUDY    39  21  48 N29G37    30.22R WCI  27
CHICAGO-MIDWAY FLURRIES  40  26  57 N32G44    30.21R WCI  28
MOLINE         MOSUNNY   43  18  36 N16G23    30.34R
ROCKFORD       PTSUNNY   40  19  43 N22G32    30.33R WCI  30
PEORIA         MOSUNNY   45  19  35 N16G25    30.29R
$$

NOTE: "FAIR" INDICATES FEW OR NO CLOUDS BELOW 12,000 FEET WITH NO
SIGNIFICANT WEATHER AND/OR OBSTRUCTIONS TO VISIBILITY. WIND
SPEEDS ARE IN MILES-PER-HOUR.



USA.gov is the U.S. government's official web portal to all federal, state and local government web resources and services.